Weather in Ukholovo

Russia / Ryazan Oblast     53°47′34″N   40°29′18″E
temp.,
°C
wind,
m/s
gust,
m/s
humid.,
%
clouds,
%
prec.,
mm/h
press.,
hPa
HPBL,
m
5 march, fri
fri500:00−2w51097100 1.1 1000500
03:00−3nnw3797100 1.8 1002312
06:00−5nw489798 0.4 1004224
09:00−7nw379471 0.4 1007223
12:00−4nw35894 0.0 1009371
15:00−3w468929 0.0 1011654
18:00−6w349261 0.0 101253
21:00−9w349331 0.0 101451
6 march, sat
sat600:00−10w23910 0.0 101621
03:00−12wnw22902 0.0 101721
06:00−13wnw119078 0.0 101721
09:00−11wnw019166 0.0 101721
12:00−7sw118566 0.0 1017238
15:00−5nw128581 0.0 1015349
18:00−9nw239266 0.0 101521
21:00−11wnw339156 0.0 101623
7 march, sun
sun700:00−12wsw34944 0.0 101658
03:00−13wsw46942 0.0 101587
06:00−13sw510930 0.0 1013156
09:00−9sw8158739 0.0 1010441
12:00−5sw101781100 0.0 1006839
15:00−4sw121994100 0.8 10001339
18:00−3w111695100 2.4 9981018
21:00−9w6147879 2.8 1002297
8 march, mon
mon800:00−10wsw613810 0.0 1003317
03:00−11sw714820 0.0 1002306
06:00−11sw7158277 0.0 999408
09:00−6sw7149383 0.1 998870
12:00−6wnw81182100 0.5 999963
15:00−8wnw9138490 0.6 10011259
18:00−9w6158295 0.3 1004611
21:00−10w6158769 0.3 1007453
9 march, tue
tue900:00−12w5119526 0.0 1009225
03:00−14w469746 0.0 1010110
06:00−16wnw339757 0.0 101231
09:00−13nw249576 0.1 1013193
12:00−11nw358997 0.1 1014516
15:00−11nw568799 0.1 1014737
18:00−15nw3694100 0.0 101597
21:00−17nw349664 0.0 101869